INTELSAT 33E DEB, 61998

Orbit data source: Space-Track

INTELSAT 33E DEB, 61998 is space debris in GEO originally from a launch on Wed, 24 Aug 2016 UTC launched from the French Guiana (FRGUI). Debris objects in space refer to the collection of defunct objects orbiting the Earth. Examples of debris include non-operational satellites, rocket bodies, and fragments generated from explosions, collisions, or faulty payload assembly.

Not visible in the next 10 days
Identifier
61998, 2016-053Q
Orbit
GEO
Country
Flag of USUS / ITSO
Related business
Manufacturer
Boeing/ES
Mission
Spacecraft
Bus & Motor
Unknown
Mass
Unknown
Launch date (UTC)
2016-08-24 (10 years ago)
Launch vehicle
Unknown
Launch site
French Guiana (FRGUI)
Object type
Payload
Rocket body
Debris
Shape & HBR
Unknown shape, 1.1 m
Radar Cross Section
Medium (>0.1 m² and <1 m²)

Expand to show TLE details & history
Last TLE update: 1 day ago

TLE from 1 day ago
0 INTELSAT 33E DEB
1 61998U 16053Q   26165.48710288  .00000053  00000-0  00000-0 0  9994
2 61998   1.5520  83.1264 0020606 341.8428  17.0763  1.00396414  6071
Epoch: 2026-06-14T11:41Z
TLE epoch observation values (Epoch: 2026-06-14T11:41:25.688Z)
Latitude
-0°
Longitude
3.97025°
Altitude
35,667.761 km
Speed
3.082 km/s
True Right ascension
05h 28m 27s
True Declination
0° 00' 00"
Sunlit
Object was in daylight at epoch
Visualization orbit readout
Latitude
Unknown
Longitude
Unknown
Altitude
Unknown
Speed
Unknown
Apparent Right ascension
Unknown
Apparent Declination
Unknown
Sunlit
N/A
Visualization observer readout
Local Sidereal Time
02:32:46
Azimuth
Unknown
Elevation
Unknown
Doppler factor
Unknown
Orbital elements
Apogee altitude
35,839.578 km
Perigee altitude
35,665.948 km
Semi-major axis
42,130.9 km
Eccentricity
0.00206
Inclination
1.552°
RAAN
83.1264°
Arg. of periapsis
341.8428°
True anomaly
17.14581°
Mean anomaly
17.0763°
Eccentric anomaly
17.11104°
Mean motion
0.25098 °/min
Orbital period
1,434.37 mins
BSTAR
0
Loading maneuver chart data...
Computing Atmospheric mass density...
Loading historical data...
Loading historical data...
Loading historical data...
Loading historical data...
Loading historical data...
Loading historical data...
Loading historical data...

Documentation

Showing up to 5 results
|